1511985601.1,16,6.0,72280.0,-7.97,-8.85,-8.85,0,*6E
1511985602.3,17,6.0,72284.8,-7.97,-8.85,-8.85,0,*6F
1511985603.49,18,6.0,72278.8,-7.97,-8.85,-8.85,0,*60
1511985604.73,19,6.0,72280.8,-7.95,-8.81,-8.81,0,*63
1511985605.98,20,6.0,72278.5,-7.95,-8.81,-8.81,0,*69
1511985607.22,21,6.0,72278.3,-7.95,-8.81,-8.81,0,*68
1511985608.47,22,6.0,72274.8,-7.95,-8.81,-8.81,0,*6B
1511985609.71,23,6.0,72282.0,-7.95,-8.81,-8.81,0,*6A
1511985610.94,24,6.0,72274.8,-7.95,-8.81,-8.75,0,*66
1511985612.13,25,6.0,72272.8,-7.97,-8.85,-8.85,0,*6E
1511985613.32,26,6.0,72276.0,-7.97,-8.85,-8.85,0,*6D
1511985614.52,27,6.0,72276.5,-7.95,-8.75,-8.75,0,*6E
1511985615.72,28,6.0,72276.3,-7.95,-8.75,-8.75,0,*61
1511985616.92,29,6.0,72282.3,-7.95,-8.75,-8.75,0,*60
1511985618.12,30,6.0,72286.0,-7.95,-8.75,-8.75,0,*68
1511985619.32,31,6.0,72292.0,-7.95,-8.71,-8.75,0,*6D
1511985620.53,32,6.0,72296.0,-7.95,-8.71,-8.75,0,*6E
1511985621.73,33,6.0,72290.8,-7.95,-8.75,-8.75,0,*6B
1511985622.91,34,6.0,72296.5,-7.97,-8.71,-8.75,0,*6A
1511985624.11,35,6.0,72288.3,-7.95,-8.75,-8.75,0,*6D
1511985625.31,36,6.0,72290.8,-7.95,-8.75,-8.75,0,*6E
1511985626.51,37,6.0,72284.0,-7.95,-8.75,-8.75,0,*6F
1511985627.71,38,6.0,72286.0,-7.95,-8.75,-8.75,0,*60
1511985628.91,39,6.0,72270.5,-7.95,-8.75,-8.71,0,*65
1511985630.11,40,6.0,72278.3,-7.95,-8.75,-8.75,0,*6F
1511985631.31,41,6.0,72286.0,-7.95,-8.71,-8.75,0,*6A
1511985632.51,42,6.0,72272.0,-7.95,-8.75,-8.75,0,*6D
1511985633.71,43,6.0,72262.3,-7.95,-8.75,-8.75,0,*6C
1511985634.93,44,6.0,72264.8,-7.95,-8.75,-8.81,0,*60
1511985636.18,45,6.0,72274.8,-7.95,-8.81,-8.81,0,*6A
1511985637.4,46,6.0,72272.3,-7.93,-8.81,-8.81,0,*6F
1511985638.64,47,6.0,72272.8,-7.95,-8.81,-8.81,0,*68
1511985639.86,48,6.0,72274.8,-7.95,-8.89,-8.89,0,*67
1511985641.06,49,6.0,72278.3,-7.95,-8.89,-8.93,0,*6D
1511985642.28,50,6.0,72276.5,-7.95,-8.89,-8.89,0,*6E
1511985643.51,51,6.0,72272.0,-7.95,-8.81,-8.89,0,*67
1511985644.72,52,6.0,72276.8,-7.95,-8.93,-8.93,0,*6C
1511985645.93,53,6.0,72276.0,-7.95,-8.89,-8.89,0,*6D
1511985647.15,54,6.0,72274.8,-7.93,-8.81,-8.81,0,*6C
1511985648.34,55,6.0,72270.3,-7.93,-8.89,-8.89,0,*6D
1511985649.52,56,6.0,72270.0,-7.93,-8.93,-8.93,0,*6E
1511985650.71,57,6.0,72268.8,-7.93,-9.01,-9.01,0,*6F
1511985651.89,58,6.0,72274.3,-7.93,-9.01,-8.93,0,*6A
1511985653.11,59,6.0,72276.3,-7.95,-8.93,-9.01,0,*6D
1511985654.32,60,6.0,72276.5,-7.95,-8.93,-9.01,0,*67
1511985655.53,61,6.0,72266.3,-7.95,-8.93,-8.93,0,*6C
1511985656.74,62,6.0,72270.5,-7.95,-9.01,-8.93,0,*65
1511985657.95,63,6.0,72268.3,-7.95,-8.93,-8.93,0,*6E
1511985659.16,64,6.0,72266.3,-7.95,-8.89,-8.93,0,*62
1511985660.37,65,6.0,72266.0,-7.95,-9.05,-9.01,0,*6C
1511985661.58,66,6.0,72272.0,-7.95,-9.01,-8.93,0,*61
1511985662.81,67,6.0,72274.8,-7.95,-8.81,-8.89,0,*62
1511985664.03,68,6.0,72270.8,-7.95,-8.93,-9.01,0,*6F
1511985665.24,69,6.0,72268.0,-7.95,-9.05,-9.05,0,*64
1511985666.42,70,6.0,72260.8,-7.93,-9.05,-9.05,0,*6A
1511985667.6,71,6.0,72264.8,-7.93,-9.05,-9.05,0,*6B
1511985668.81,72,6.0,72268.5,-7.95,-9.05,-9.05,0,*6E
1511985670.01,73,6.0,72274.8,-7.95,-9.05,-9.05,0,*6F
1511985671.23,74,6.0,72280.0,-7.97,-9.11,-9.05,0,*6F
1511985672.44,75,6.0,72280.3,-7.95,-8.93,-9.01,0,*63
1511985673.65,76,6.0,72290.0,-7.95,-9.01,-8.93,0,*60
1511985674.86,77,6.0,72296.3,-7.95,-8.93,-8.89,0,*60
1511985676.05,78,6.0,72284.3,-7.97,-8.93,-8.93,0,*66
1511985677.26,79,6.0,72288.5,-7.95,-8.89,-8.93,0,*6E
1511985678.49,80,6.0,72288.3,-7.95,-8.89,-8.81,0,*6B
1511985679.7,81,6.0,72292.3,-7.95,-8.89,-8.93,0,*69
1511985680.93,82,6.0,72294.3,-7.95,-8.89,-8.81,0,*69
1511985682.14,83,6.0,72292.5,-7.95,-8.93,-8.93,0,*60
1511985683.33,84,6.0,72276.8,-7.97,-9.05,-8.97,0,*6F
1511985684.54,85,6.0,72280.3,-7.95,-8.93,-8.93,0,*66
1511985685.72,86,6.0,72282.0,-7.97,-8.97,-8.97,0,*67
1511985686.93,87,6.0,72278.3,-7.95,-8.93,-9.01,0,*6E
1511985688.14,88,6.0,72278.8,-7.95,-8.93,-8.93,0,*6B
1511985689.37,89,6.0,72288.8,-7.95,-8.93,-8.81,0,*69
1511985690.6,90,6.0,72280.8,-7.95,-8.89,-8.81,0,*6A
1511985691.81,91,6.0,72278.8,-7.95,-8.89,-8.89,0,*63
1511985693.03,92,6.0,72282.5,-7.95,-8.93,-8.89,0,*6B
1511985694.27,93,6.0,72274.8,-7.95,-8.81,-8.81,0,*61
1511985695.48,94,6.0,72274.0,-7.95,-8.89,-8.89,0,*66
1511985696.7,95,6.0,72278.3,-7.95,-8.93,-8.89,0,*6C
1511985697.91,96,6.0,72276.0,-7.95,-8.93,-9.01,0,*6E
1511985699.12,97,6.0,72270.3,-7.95,-8.93,-8.89,0,*6E
1511985700.34,98,6.0,72272.8,-7.95,-8.89,-8.89,0,*6A
1511985701.55,99,6.0,72272.8,-7.95,-9.01,-8.93,0,*61
1511985702.77,100,6.0,72276.5,-7.95,-9.01,-8.93,0,*50
1511985703.98,101,6.0,72282.0,-7.95,-9.01,-8.93,0,*51
1511985705.2,102,6.0,72284.5,-7.95,-8.89,-8.93,0,*53
1511985706.43,103,6.0,72288.8,-7.95,-8.89,-8.81,0,*51
1511985707.68,104,6.0,72286.0,-7.95,-8.81,-8.81,0,*5E
1511985708.92,105,6.0,72286.0,-7.95,-8.89,-8.81,0,*57
1511985710.16,106,6.0,72286.8,-7.95,-8.89,-8.81,0,*54
1511985711.39,107,6.0,72290.5,-7.95,-8.89,-8.81,0,*55
1511985712.58,108,6.0,72288.8,-7.97,-8.93,-8.93,0,*50
1511985713.8,109,6.0,72292.0,-7.95,-8.89,-8.89,0,*53
1511985715.0,110,6.0,72294.5,-7.97,-8.93,-8.93,0,*59
1511985716.21,111,6.0,72286.0,-7.95,-8.93,-8.89,0,*51
1511985717.43,112,6.0,72264.8,-7.95,-8.93,-8.89,0,*52
1511985718.65,113,6.0,72260.8,-7.95,-8.93,-9.01,0,*52
1511985719.87,114,6.0,72262.8,-7.95,-8.93,-9.01,0,*55
1511985721.11,115,6.0,72266.5,-7.95,-8.89,-8.81,0,*56
1511985722.33,116,6.0,72264.5,-7.95,-8.89,-8.89,0,*5D
1511985723.54,117,6.0,72260.0,-7.95,-9.01,-8.93,0,*56
1511985724.76,118,6.0,72260.0,-7.95,-9.01,-9.01,0,*53
1511985725.98,119,5.94,72262.0,-7.95,-8.93,-8.93,0,*52
1511985727.2,120,6.0,72264.5,-7.95,-9.01,-8.93,0,*52
1511985728.41,121,6.0,72266.0,-7.95,-8.89,-8.93,0,*52
1511985729.6,122,6.0,72268.3,-7.97,-8.93,-8.93,0,*58
1511985730.79,123,6.0,72272.5,-7.97,-8.97,-8.93,0,*5D
1511985732.03,124,6.0,72272.5,-7.95,-8.93,-8.81,0,*5F
1511985733.21,125,6.0,72274.3,-7.97,-8.97,-8.93,0,*5B
1511985734.43,126,6.0,72272.0,-7.95,-8.89,-8.93,0,*55
1511985735.65,127,6.0,72268.3,-7.95,-8.93,-8.89,0,*54
1511985736.83,128,6.0,72262.8,-7.97,-8.97,-8.97,0,*52
1511985738.02,129,6.0,72266.5,-7.97,-8.97,-8.97,0,*53
1511985739.24,130,6.0,72270.3,-7.95,-8.93,-8.93,0,*59
1511985740.47,131,6.0,72286.5,-7.95,-9.01,-8.81,0,*51
1511985741.71,132,6.0,72288.5,-7.95,-8.89,-8.81,0,*53
1511985742.96,133,6.0,72288.3,-7.95,-8.81,-8.81,0,*5A
1511985744.21,134,6.0,72280.5,-7.95,-8.81,-8.81,0,*5D
1511985745.44,135,6.0,72278.5,-7.95,-8.89,-8.81,0,*54
1511985746.7,136,6.0,72276.8,-7.95,-8.81,-8.81,0,*5F
1511985747.95,137,6.0,72288.0,-7.95,-8.81,-8.81,0,*5E
1511985749.2,138,6.0,72290.5,-7.95,-8.81,-8.81,0,*51
1511985750.43,139,6.0,72274.0,-7.95,-8.81,-8.89,0,*58
1511985751.65,140,6.0,72262.0,-7.95,-8.89,-8.93,0,*55
1511985752.87,141,6.0,72266.0,-7.95,-9.01,-9.01,0,*5F
1511985754.06,142,6.0,72262.0,-7.93,-8.89,-8.93,0,*51
1511985755.25,143,6.0,72264.5,-7.93,-8.93,-8.93,0,*5B
1511985756.44,144,6.0,72274.5,-7.93,-9.01,-8.93,0,*56
1511985757.63,145,6.0,72268.0,-7.93,-9.01,-8.93,0,*57
1511985758.82,146,6.0,72276.3,-7.93,-9.01,-8.93,0,*54
1511985760.01,147,6.0,72272.5,-7.93,-9.01,-9.01,0,*5F
1511985761.2,148,6.0,72278.3,-7.93,-8.93,-8.93,0,*50
1511985762.4,149,6.0,72280.5,-7.97,-8.89,-8.89,0,*55
1511985763.62,150,6.0,72282.5,-7.95,-8.89,-8.89,0,*5F
1511985764.83,151,6.0,72286.3,-7.95,-8.93,-8.93,0,*5E
1511985766.05,152,6.0,72290.0,-7.95,-8.93,-8.93,0,*5D
1511985767.24,153,5.94,72282.3,-7.97,-8.93,-8.93,0,*5E
1511985768.46,154,6.0,72282.0,-7.95,-9.01,-8.93,0,*51
1511985769.68,155,6.0,72288.5,-7.95,-8.93,-8.89,0,*51
1511985770.89,156,6.0,72286.3,-7.95,-8.93,-8.89,0,*52
1511985772.11,157,6.0,72280.8,-7.95,-8.93,-8.89,0,*53
1511985773.33,158,6.0,72286.8,-7.95,-8.93,-8.89,0,*5C
1511985774.55,159,6.0,72292.0,-7.95,-8.93,-8.89,0,*5D
1511985775.78,160,6.0,72298.5,-7.95,-8.89,-8.81,0,*54
1511985777.02,161,6.0,72296.3,-7.95,-8.89,-8.81,0,*55
1511985778.26,162,6.0,72298.8,-7.95,-8.89,-8.81,0,*56
1511985779.49,163,6.0,72300.3,-7.95,-8.81,-8.89,0,*57
1511985780.73,164,6.0,72300.3,-7.95,-8.89,-8.81,0,*50
1511985781.95,165,6.0,72292.8,-7.93,-8.81,-8.81,0,*5F
1511985783.16,166,6.0,72302.5,-7.93,-8.89,-8.81,0,*54
1511985784.37,167,6.0,72296.5,-7.91,-8.75,-8.75,0,*5F
1511985785.57,168,6.0,72294.8,-7.91,-8.75,-8.75,0,*50
1511985786.8,169,6.0,72296.5,-7.93,-8.81,-8.81,0,*53
1511985788.03,170,6.0,72298.5,-7.95,-8.81,-8.75,0,*56
1511985789.24,171,6.0,72296.5,-7.91,-8.75,-8.71,0,*5C
1511985790.44,172,6.0,72300.5,-7.91,-8.75,-8.71,0,*5F
1511985791.67,173,6.0,72296.0,-7.93,-8.81,-8.81,0,*58
1511985792.87,174,6.0,72292.0,-7.93,-8.75,-8.81,0,*54
1511985794.09,175,6.0,72296.0,-7.91,-8.85,-8.75,0,*53
1511985795.31,176,5.94,72294.3,-7.93,-8.81,-8.81,0,*5D
1511985796.52,177,6.0,72294.0,-7.93,-8.89,-8.81,0,*54
1511985797.74,178,6.0,72292.8,-7.93,-8.81,-8.81,0,*53
1511985798.97,179,6.0,72292.0,-7.93,-8.81,-8.81,0,*52
1511985800.19,180,6.0,72290.0,-7.93,-8.81,-8.81,0,*54
1511985801.42,181,6.0,72296.3,-7.93,-8.81,-8.81,0,*55
1511985802.64,182,6.0,72292.5,-7.93,-8.81,-8.81,0,*56
1511985803.86,183,6.0,72292.0,-7.93,-8.81,-8.81,0,*57
1511985805.07,184,6.0,72292.8,-7.91,-8.75,-8.71,0,*56
1511985806.28,185,5.94,72288.0,-7.91,-8.75,-8.71,0,*57
1511985807.49,186,6.0,72292.3,-7.91,-8.75,-8.71,0,*54
1511985808.7,187,6.0,72284.0,-7.91,-8.75,-8.71,0,*55
1511985809.91,188,5.94,72286.3,-7.91,-8.75,-8.71,0,*5A
1511985811.12,189,6.0,72292.3,-7.91,-8.85,-8.75,0,*50
1511985812.33,190,6.0,72294.3,-7.91,-8.75,-8.75,0,*57
1511985813.54,191,6.0,72294.3,-7.91,-8.75,-8.75,0,*56
1511985814.75,192,5.94,72294.5,-7.91,-8.75,-8.75,0,*55
1511985815.96,193,6.0,72292.8,-7.91,-8.75,-8.75,0,*54
1511985817.17,194,6.0,72294.8,-7.91,-8.75,-8.75,0,*53
1511985818.37,195,6.0,72298.3,-7.91,-8.75,-8.75,0,*52
1511985819.58,196,5.94,72296.8,-7.91,-8.75,-8.75,0,*51
1511985820.79,197,6.0,72302.0,-7.91,-8.75,-8.75,0,*50
1511985822.0,198,5.94,72298.8,-7.91,-8.75,-8.75,0,*5F
1511985823.21,199,5.94,72298.5,-7.91,-8.75,-8.75,0,*5E
1511985824.42,200,6.0,72298.3,-7.91,-8.75,-8.75,0,*5D
1511985825.62,201,5.94,72296.3,-7.93,-8.89,-8.81,0,*56
1511985826.85,202,6.0,72300.0,-7.91,-8.85,-8.85,0,*5F
1511985828.06,203,5.94,72296.0,-7.91,-8.75,-8.85,0,*51
1511985829.28,204,6.0,72294.3,-7.91,-8.75,-8.85,0,*56
1511985830.5,205,5.94,72292.3,-7.91,-8.85,-8.85,0,*58
1511985831.73,206,6.0,72296.3,-7.91,-8.85,-8.85,0,*5B
1511985832.93,207,5.94,72300.0,-7.91,-8.75,-8.75,0,*5A
1511985834.12,208,6.0,72302.5,-7.89,-8.75,-8.85,0,*53
1511985835.32,209,6.0,72302.5,-7.89,-8.85,-8.85,0,*5D
1511985836.52,210,6.0,72306.3,-7.89,-8.85,-8.85,0,*55
1511985837.71,211,6.0,72302.0,-7.89,-8.85,-8.85,0,*54
1511985838.9,212,6.0,72298.3,-7.93,-8.93,-8.93,0,*5C
1511985840.1,213,6.0,72300.5,-7.89,-8.89,-8.89,0,*56
1511985841.29,214,5.94,72290.3,-7.89,-8.89,-8.97,0,*5E
1511985842.48,215,6.0,72290.8,-7.89,-8.89,-8.89,0,*50
1511985843.68,216,5.94,72284.5,-7.89,-8.85,-8.89,0,*5F
1511985844.88,217,5.94,72286.3,-7.89,-8.85,-8.85,0,*52
1511985846.07,218,6.0,72286.5,-7.89,-8.85,-8.85,0,*5D
1511985847.33,219,6.0,72284.8,-7.85,-8.81,-8.81,0,*50
1511985848.51,220,6.0,72286.3,-7.89,-8.75,-8.75,0,*56
1511985849.71,221,6.0,72286.5,-7.89,-8.85,-8.85,0,*57
1511985850.89,222,6.0,72278.5,-7.89,-8.89,-8.75,0,*57
1511985852.09,223,5.94,72278.8,-7.89,-8.89,-8.85,0,*59
1511985853.28,224,5.94,72280.8,-7.89,-8.85,-8.75,0,*5D
1511985854.47,225,6.0,72280.8,-7.89,-8.85,-8.85,0,*53
1511985855.67,226,6.0,72280.0,-7.89,-8.85,-8.85,0,*50
1511985856.91,227,5.94,72282.5,-7.85,-8.71,-8.81,0,*52
1511985858.17,228,5.94,72280.5,-7.85,-8.81,-8.81,0,*52
1511985859.36,229,5.94,72280.5,-7.89,-8.85,-8.85,0,*5F
1511985860.56,230,6.0,72280.8,-7.89,-8.85,-8.85,0,*57
1511985861.75,231,5.94,72280.0,-7.89,-8.75,-8.85,0,*59
1511985862.94,232,6.0,72284.0,-7.89,-8.85,-8.75,0,*5A
1511985864.12,233,5.94,72278.3,-7.89,-8.75,-8.75,0,*54
1511985865.33,234,5.94,72276.3,-7.85,-8.71,-8.71,0,*5F
1511985866.52,235,6.0,72278.8,-7.89,-8.71,-8.71,0,*52
1511985867.71,236,6.0,72286.8,-7.89,-8.75,-8.85,0,*5E
1511985868.93,237,6.0,72290.5,-7.85,-8.71,-8.71,0,*5C
1511985870.11,238,6.0,72286.3,-7.89,-8.75,-8.75,0,*5F
1511985871.29,239,6.0,72278.8,-7.89,-8.75,-8.75,0,*5E
1511985872.47,240,6.0,72278.8,-7.89,-8.75,-8.75,0,*50
1511985873.66,241,5.94,72272.0,-7.89,-8.85,-8.75,0,*5E
1511985874.84,242,5.94,72274.3,-7.89,-8.75,-8.75,0,*52
1511985876.03,243,6.0,72280.3,-7.89,-8.71,-8.71,0,*53
1511985877.25,244,5.94,72284.3,-7.85,-8.71,-8.71,0,*58
1511985878.44,245,5.94,72288.5,-7.89,-8.75,-8.85,0,*5A
1511985879.65,246,5.94,72284.8,-7.85,-8.71,-8.71,0,*5A
1511985880.84,247,6.0,72278.8,-7.89,-8.75,-8.85,0,*58
1511985882.03,248,5.94,72266.5,-7.89,-8.85,-8.75,0,*57
1511985883.21,249,5.94,72270.3,-7.89,-8.75,-8.75,0,*59
1511985884.43,250,5.94,72284.8,-7.85,-8.71,-8.71,0,*5D
1511985885.62,251,5.94,72280.5,-7.89,-8.75,-8.85,0,*5F
1511985886.83,252,6.0,72282.5,-7.85,-8.71,-8.71,0,*5F
1511985888.02,253,6.0,72274.3,-7.89,-8.75,-8.75,0,*52
1511985889.27,254,5.94,72272.0,-7.85,-8.81,-8.81,0,*59
1511985890.5,255,6.0,72284.3,-7.85,-8.81,-8.71,0,*57
1511985891.68,256,6.0,72292.0,-7.89,-8.75,-8.75,0,*57
1511985892.92,257,5.94,72274.0,-7.85,-8.71,-8.81,0,*55
1511985894.15,258,5.94,72262.0,-7.85,-8.93,-8.85,0,*52
1511985895.37,259,5.94,72268.3,-7.85,-8.85,-8.85,0,*54
1511985896.59,260,5.94,72276.0,-7.85,-8.71,-8.71,0,*5E
1511985897.78,261,5.94,72274.0,-7.89,-8.89,-8.85,0,*5F
1511985899.01,262,6.0,72264.3,-7.85,-8.93,-8.85,0,*5B
1511985900.23,263,6.0,72262.8,-7.85,-8.93,-8.93,0,*5D
1511985901.45,264,6.0,72274.0,-7.85,-8.85,-8.93,0,*5D
1511985902.67,265,6.0,72276.3,-7.85,-8.85,-8.93,0,*5C
1511985903.89,266,5.94,72274.5,-7.85,-8.93,-8.93,0,*58
1511985905.11,267,5.94,72258.8,-7.85,-9.05,-9.05,0,*59
1511985906.32,268,5.94,72256.3,-7.85,-8.97,-9.05,0,*5C
1511985907.57,269,6.0,72260.3,-7.89,-9.11,-9.11,0,*5B
1511985908.81,270,6.0,72270.3,-7.85,-9.11,-9.05,0,*5A
1511985910.03,271,6.0,72266.5,-7.85,-8.97,-8.93,0,*5A
1511985911.24,272,5.94,72266.3,-7.85,-8.97,-8.93,0,*59
1511985912.43,273,6.0,72268.3,-7.89,-9.01,-8.97,0,*5E
1511985913.65,274,6.0,72266.0,-7.85,-8.97,-8.97,0,*5B
1511985914.86,275,5.94,72258.0,-7.85,-8.97,-9.05,0,*50
1511985916.05,276,5.94,72270.3,-7.89,-9.01,-8.97,0,*5B
1511985917.25,277,5.94,72272.5,-7.89,-9.01,-9.01,0,*54
1511985918.44,278,5.94,72264.5,-7.89,-9.01,-8.97,0,*55
1511985919.67,279,6.0,72266.5,-7.85,-8.85,-8.93,0,*51
1511985920.86,280,5.94,72260.5,-7.89,-8.89,-8.89,0,*5C
1511985922.05,281,5.94,72262.8,-7.89,-9.01,-8.97,0,*53
1511985923.24,282,5.94,72270.5,-7.89,-8.97,-8.89,0,*51
1511985924.43,283,5.94,72268.3,-7.89,-8.97,-8.89,0,*50
1511985925.62,284,5.94,72264.8,-7.89,-9.01,-8.97,0,*56
1511985926.81,285,6.0,72264.5,-7.89,-8.97,-8.89,0,*56
1511985928.0,286,6.0,72272.3,-7.89,-8.97,-9.01,0,*54
1511985929.23,287,5.94,72278.5,-7.85,-8.93,-8.85,0,*50
1511985930.41,288,5.94,72288.8,-7.89,-8.97,-8.97,0,*54
1511985931.61,289,5.94,72280.5,-7.89,-8.89,-8.85,0,*59
1511985932.8,290,5.94,72276.3,-7.89,-8.85,-8.75,0,*52
1511985933.99,291,5.94,72276.5,-7.89,-8.75,-8.85,0,*53
1511985935.21,292,5.94,72278.3,-7.85,-8.85,-8.93,0,*54
1511985936.4,293,6.0,72294.0,-7.89,-8.89,-8.89,0,*5E
1511985937.64,294,5.94,72302.8,-7.85,-8.85,-8.81,0,*51
1511985938.82,295,5.94,72312.0,-7.89,-8.75,-8.75,0,*58
1511985940.06,296,5.94,72288.0,-7.85,-8.71,-8.81,0,*58
1511985941.26,297,6.0,72250.5,-7.89,-8.85,-8.85,0,*5A
1511985942.49,298,5.94,72230.8,-7.85,-8.81,-8.71,0,*56
1511985943.71,299,6.0,72252.3,-7.85,-8.71,-8.71,0,*58
1511985944.96,300,5.94,72260.8,-7.85,-8.81,-8.81,0,*59
1511985946.22,301,5.94,72264.0,-7.85,-8.81,-8.81,0,*58
1511985947.42,302,5.94,72264.3,-7.89,-8.89,-8.89,0,*57
1511985948.6,303,5.94,72266.0,-7.89,-8.97,-8.89,0,*59
1511985949.79,304,5.94,72266.8,-7.89,-8.97,-8.89,0,*5E
1511985950.99,305,5.94,72270.0,-7.89,-8.89,-8.97,0,*5F
1511985952.18,306,5.94,72266.5,-7.89,-8.89,-8.89,0,*53
1511985953.38,307,5.94,72272.8,-7.89,-8.89,-8.89,0,*52
1511985954.6,308,5.94,72274.0,-7.85,-8.93,-8.93,0,*51
1511985955.78,309,5.94,72276.0,-7.89,-8.97,-8.97,0,*5C
1511985956.97,310,5.94,72280.3,-7.89,-8.97,-8.97,0,*54
1511985958.19,311,5.94,72286.3,-7.85,-8.93,-8.93,0,*59
1511985959.41,312,5.94,72282.8,-7.85,-8.85,-8.85,0,*5A
1511985960.63,313,5.94,72284.5,-7.85,-8.93,-8.93,0,*5B
1511985961.82,314,5.94,72284.8,-7.89,-8.89,-8.97,0,*5F
1511985963.06,315,5.94,72292.0,-7.85,-8.85,-8.81,0,*59
1511985964.25,316,5.94,72282.3,-7.89,-8.97,-8.85,0,*51
1511985965.45,317,5.94,72278.0,-7.89,-8.89,-8.89,0,*53
1511985966.67,318,5.94,72276.0,-7.85,-8.85,-8.85,0,*50
1511985967.89,319,5.94,72280.3,-7.85,-8.93,-8.93,0,*51
1511985969.12,320,5.94,72282.0,-7.85,-8.85,-8.85,0,*5B
1511985970.31,321,5.94,72280.0,-7.89,-8.85,-8.85,0,*56
1511985971.53,322,5.94,72282.8,-7.85,-8.93,-8.93,0,*59
1511985972.75,323,5.94,72286.0,-7.85,-8.93,-8.93,0,*58
1511985974.0,324,5.94,72286.0,-7.85,-8.85,-8.81,0,*5B
1511985975.25,325,5.94,72278.8,-7.85,-8.81,-8.81,0,*5E
1511985976.51,326,5.94,72272.3,-7.85,-8.81,-8.81,0,*5D
1511985977.73,327,5.94,72272.5,-7.85,-8.93,-8.93,0,*5C
1511985978.95,328,5.94,72266.3,-7.85,-8.85,-8.85,0,*53
1511985980.17,329,5.94,72272.0,-7.85,-8.93,-8.85,0,*55
1511985981.37,330,5.94,72268.0,-7.89,-8.89,-8.97,0,*59
1511985982.55,331,5.94,72266.5,-7.89,-8.97,-8.89,0,*58
1511985983.77,332,5.94,72264.8,-7.85,-8.97,-8.93,0,*5C
1511985984.98,333,6.0,72264.8,-7.85,-8.97,-8.93,0,*5D
1511985986.21,334,5.94,72260.0,-7.85,-8.93,-8.85,0,*59
1511985987.4,335,5.94,72260.0,-7.89,-8.89,-8.97,0,*5C
1511985988.62,336,5.94,72270.0,-7.85,-8.97,-8.85,0,*5F
1511985989.81,337,5.94,72278.8,-7.89,-8.97,-8.89,0,*5E
1511985991.0,338,5.94,72278.0,-7.89,-8.97,-8.85,0,*5D
1511985992.22,339,5.94,72258.8,-7.85,-8.93,-8.93,0,*53
1511985993.41,340,5.94,72248.0,-7.89,-8.85,-8.89,0,*5D
1511985994.67,341,5.94,72258.0,-7.85,-8.81,-8.81,0,*5C
1511985995.91,342,5.94,72284.5,-7.85,-8.81,-8.85,0,*5B
1511985997.16,343,5.94,72290.3,-7.85,-8.81,-8.81,0,*5E
1511985998.38,344,5.94,72256.8,-7.83,-8.93,-8.81,0,*5C
1511985999.6,345,5.94,72254.3,-7.85,-8.93,-8.93,0,*58
1511986000.83,346,6.0,72258.5,-7.85,-8.85,-8.85,0,*5B
1511986002.05,347,5.94,72266.0,-7.85,-8.93,-8.93,0,*5A
1511986003.26,348,5.94,72272.0,-7.85,-8.97,-8.93,0,*51
1511986004.48,349,5.94,72292.8,-7.85,-8.93,-8.85,0,*53
1511986005.71,350,5.94,72286.3,-7.85,-8.85,-8.93,0,*5B
1511986006.93,351,5.94,72292.3,-7.85,-8.93,-8.85,0,*5A
1511986008.15,352,5.94,72274.3,-7.85,-8.93,-8.93,0,*5E
1511986009.37,353,5.94,72264.5,-7.85,-8.93,-8.93,0,*5F
1511986010.59,354,5.94,72288.3,-7.85,-8.93,-8.97,0,*5C
1511986011.8,355,5.94,72270.3,-7.85,-8.97,-8.97,0,*59
1511986013.02,356,5.94,72272.5,-7.85,-9.05,-9.05,0,*5A
1511986014.24,357,5.94,72288.0,-7.85,-8.97,-8.93,0,*5F
1511986015.46,358,5.94,72302.8,-7.85,-8.93,-8.85,0,*53
1511986016.68,359,5.94,72286.5,-7.85,-8.97,-9.05,0,*5F
1511986017.89,360,5.94,72250.5,-7.85,-9.05,-9.05,0,*5F
1511986019.17,361,5.94,72252.8,-7.85,-9.11,-9.11,0,*5E
1511986020.38,362,5.94,72246.5,-7.85,-8.93,-8.97,0,*59
1511986021.61,363,5.94,72250.3,-7.85,-8.93,-8.85,0,*5B
1511986022.83,364,5.94,72248.3,-7.85,-8.93,-8.85,0,*5C
1511986024.06,365,5.94,72266.3,-7.85,-8.85,-8.85,0,*5A
1511986025.28,366,5.94,72284.3,-7.85,-8.85,-8.85,0,*59
1511986026.5,367,5.94,72274.8,-7.85,-8.85,-8.85,0,*58
1511986027.7,368,5.94,72256.5,-7.83,-8.97,-8.97,0,*51
1511986028.9,369,5.94,72270.0,-7.83,-8.93,-8.93,0,*50
1511986030.12,370,5.94,72268.5,-7.85,-8.93,-8.85,0,*59
1511986031.34,371,5.94,72258.8,-7.85,-8.93,-8.93,0,*5F
1511986032.55,372,5.94,72270.8,-7.83,-8.85,-8.85,0,*5A
1511986033.75,373,5.94,72272.8,-7.83,-8.85,-8.85,0,*5B
1511986034.97,374,5.94,72270.5,-7.83,-8.85,-8.81,0,*58
1511986036.21,375,5.94,72264.8,-7.83,-8.81,-8.81,0,*5D
1511986037.44,376,5.94,72262.3,-7.83,-8.81,-8.81,0,*5E
1511986038.66,377,5.94,72274.3,-7.83,-8.85,-8.81,0,*5B
1511986039.92,378,5.94,72284.0,-7.85,-8.81,-8.81,0,*56
1511986041.13,379,5.94,72292.5,-7.81,-8.67,-8.75,0,*50
1511986042.35,380,5.94,72292.8,-7.83,-8.71,-8.81,0,*58
1511986043.57,381,5.94,72278.8,-7.83,-8.71,-8.81,0,*59
1511986044.78,382,5.94,72278.5,-7.85,-8.71,-8.71,0,*53
1511986045.98,383,5.94,72276.5,-7.83,-8.71,-8.71,0,*54
1511986047.17,384,5.94,72272.3,-7.83,-8.71,-8.71,0,*53
1511986048.36,385,5.94,72268.8,-7.83,-8.67,-8.71,0,*55
1511986049.55,386,5.94,72260.3,-7.83,-8.67,-8.71,0,*56
1511986050.79,387,5.94,72256.8,-7.83,-8.81,-8.81,0,*50
1511986052.05,388,5.94,72258.5,-7.81,-8.81,-8.81,0,*5D
1511986053.25,389,5.94,72260.5,-7.83,-8.93,-8.93,0,*5E
1511986054.48,390,5.94,72260.3,-7.81,-8.81,-8.89,0,*5C
1511986055.71,391,5.94,72266.0,-7.81,-8.89,-8.89,0,*55
1511986056.93,392,5.94,72266.0,-7.81,-8.89,-8.89,0,*56
1511986058.13,393,5.94,72260.5,-7.83,-8.97,-8.97,0,*55
1511986059.35,394,5.94,72266.5,-7.81,-8.93,-8.93,0,*50
1511986060.57,395,5.94,72268.8,-7.81,-8.89,-8.93,0,*5A
1511986061.77,396,5.94,72266.3,-7.83,-8.93,-8.97,0,*54
1511986062.99,397,5.94,72270.3,-7.81,-9.01,-8.93,0,*59
1511986064.19,398,5.94,72272.0,-7.83,-8.97,-9.05,0,*54
1511986065.41,399,5.94,72274.5,-7.81,-8.93,-9.01,0,*57
1511986066.61,400,5.94,72280.3,-7.83,-9.05,-8.97,0,*52
1511986067.83,401,5.94,72280.8,-7.81,-8.89,-8.93,0,*50
1511986069.02,402,5.94,72278.3,-7.83,-8.97,-8.97,0,*5A
1511986070.22,403,5.94,72278.5,-7.83,-8.97,-8.97,0,*5B
1511986071.44,404,5.94,72284.3,-7.81,-8.93,-9.01,0,*54
1511986072.66,405,5.94,72288.0,-7.81,-9.01,-8.93,0,*55
1511986073.88,406,5.94,72288.3,-7.81,-8.93,-8.93,0,*5C
1511986075.11,407,5.94,72286.0,-7.81,-8.93,-8.93,0,*5D
1511986076.33,408,5.94,72280.0,-7.81,-9.01,-8.93,0,*58
1511986077.55,409,5.94,72284.5,-7.81,-9.01,-9.01,0,*53
1511986078.77,410,5.94,72288.3,-7.81,-9.05,-9.05,0,*5B
1511986079.97,411,5.94,72286.5,-7.83,-8.97,-8.97,0,*58
1511986081.17,412,5.94,72288.8,-7.83,-8.93,-8.97,0,*5F
1511986082.39,413,5.94,72294.0,-7.81,-9.01,-9.05,0,*5C
1511986083.61,414,5.94,72282.0,-7.81,-9.05,-9.05,0,*5F
1511986084.83,415,5.94,72286.0,-7.81,-9.05,-9.05,0,*5E
1511986086.1,416,5.94,72276.5,-7.81,-9.15,-9.15,0,*5D
1511986087.32,417,5.94,72276.5,-7.79,-9.15,-9.05,0,*5A
1511986088.54,418,5.94,72286.3,-7.81,-9.05,-9.05,0,*53
1511986089.78,419,5.94,72278.5,-7.81,-9.05,-9.15,0,*53
1511986090.97,420,5.94,72288.3,-7.83,-9.19,-9.19,0,*5A
1511986092.22,421,5.94,72290.3,-7.81,-9.15,-9.19,0,*55
1511986093.46,422,5.94,72284.0,-7.79,-9.15,-9.15,0,*5D
1511986094.66,423,5.94,72284.0,-7.83,-9.19,-9.19,0,*59
1511986095.9,424,5.94,72290.0,-7.81,-9.15,-9.19,0,*50
1511986097.1,425,5.94,72288.5,-7.83,-9.19,-9.23,0,*56
1511986098.35,426,5.94,72284.5,-7.83,-9.11,-9.11,0,*5C
1511986099.62,427,5.94,72286.0,-7.81,-9.15,-9.11,0,*5B
1511986100.85,428,5.94,72290.0,-7.83,-9.11,-9.23,0,*53
1511986102.07,429,5.94,72292.5,-7.83,-9.11,-9.23,0,*52
1511986103.26,430,5.94,72306.5,-7.83,-9.19,-9.23,0,*52
1511986104.5,431,5.94,72302.5,-7.81,-9.05,-9.15,0,*59
1511986105.71,432,5.94,72280.0,-7.81,-9.27,-9.31,0,*5C
1511986106.95,433,5.94,72264.0,-7.83,-9.57,-9.57,0,*58
1511986108.13,434,5.94,72268.8,-7.83,-9.89,-9.79,0,*50
1511986109.33,435,5.94,72266.0,-7.83,-9.93,-9.93,0,*5E
1511986110.51,436,5.94,72268.8,-7.83,-9.93,-9.89,0,*56
1511986111.71,437,5.94,72272.3,-7.83,-9.79,-9.93,0,*58
1511986112.91,438,5.94,72268.0,-7.83,-10.01,-9.93,0,*60
1511986114.13,439,5.94,72270.5,-7.85,-10.05,-10.01,0,*50
1511986115.32,440,5.94,72270.8,-7.89,-10.09,-10.05,0,*5A
1511986116.51,441,5.94,72278.8,-7.89,-9.71,-9.79,0,*5F
1511986117.7,442,5.94,72280.5,-7.89,-9.67,-9.67,0,*54
1511986118.91,443,5.94,72280.8,-7.89,-9.67,-9.53,0,*52
1511986120.15,444,5.94,72280.5,-7.89,-9.53,-9.53,0,*52
1511986121.38,445,5.94,72290.8,-7.89,-9.53,-9.53,0,*53
1511986122.62,446,5.94,72294.0,-7.89,-9.49,-9.53,0,*5B
1511986123.85,447,5.94,72290.5,-7.89,-9.53,-9.61,0,*50
1511986125.09,448,5.94,72294.0,-7.89,-9.49,-9.53,0,*55
1511986126.33,449,5.94,72296.3,-7.89,-9.41,-9.53,0,*5C
1511986127.58,450,5.94,72292.8,-7.89,-9.37,-9.53,0,*55
1511986128.81,451,5.94,72294.3,-7.89,-9.49,-9.61,0,*5C
1511986130.05,452,5.94,72290.0,-7.89,-9.49,-9.53,0,*5E
1511986131.28,453,5.94,72292.5,-7.89,-9.53,-9.61,0,*55
1511986132.52,454,5.94,72292.5,-7.89,-9.49,-9.53,0,*58
1511986133.75,455,5.94,72294.3,-7.89,-9.49,-9.49,0,*52
1511986134.99,456,5.94,72296.8,-7.89,-9.49,-9.49,0,*51
1511986136.26,457,5.94,72302.0,-7.85,-9.37,-9.45,0,*59